CSZ648 RJTT-VHHX

Flight info

Callsign CSZ648
Flight time 4h 0m
Altitude 34000
Route LAXAS Y56 TOHME Y54 RUPAP Y244 GREEN A1 SUC Y24 KOSHI Y50 IGMON A1 ELATO
Aircraft A21N/M-SDE2E3FGHILRWXY/LB2

Departure

Time 2026-05-01 09:07
Airport Tokyo Haneda International Airport (RJTT)

Arrival

Time 2026-05-01 13:07
Airport Hong Kong International Airport Kai Tak (VHHX)
Time Latitude Longitude Altitude Speed Heading
2026-05-01 08:45 35.54914 139.76822 44 ft 0 kts 148°
2026-05-01 09:00 35.54922 139.76816 44 ft 2 kts 151°
2026-05-01 09:00 35.54935 139.76807 44 ft 2 kts 150°
2026-05-01 09:01 35.54948 139.76798 44 ft 2 kts 150°
2026-05-01 09:01 35.54962 139.76788 44 ft 2 kts 161°
2026-05-01 09:01 35.54977 139.76787 44 ft 2 kts 186°
2026-05-01 09:01 35.54991 139.76791 44 ft 2 kts 209°
2026-05-01 09:02 35.55003 139.76802 44 ft 2 kts 232°
2026-05-01 09:02 35.55008 139.76810 44 ft 1 kts 244°
2026-05-01 09:02 35.55009 139.76814 44 ft 0 kts 241°
2026-05-01 09:04 35.55005 139.76807 44 ft 1 kts 240°
2026-05-01 09:04 35.54983 139.76759 44 ft 10 kts 240°
2026-05-01 09:04 35.54966 139.76648 44 ft 14 kts 302°
2026-05-01 09:04 35.55059 139.76592 44 ft 18 kts 359°
2026-05-01 09:05 35.55199 139.76653 44 ft 25 kts 36°
2026-05-01 09:05 35.55363 139.76794 44 ft 30 kts 35°
2026-05-01 09:05 35.55534 139.76941 44 ft 29 kts 35°
2026-05-01 09:05 35.55663 139.77051 44 ft 9 kts 35°
2026-05-01 09:06 35.55703 139.77109 44 ft 8 kts 70°
2026-05-01 09:06 35.55693 139.77142 44 ft 4 kts 163°
2026-05-01 09:06 35.55659 139.77150 44 ft 5 kts 158°
2026-05-01 09:06 35.55606 139.77185 44 ft 19 kts 150°
2026-05-01 09:07 35.55272 139.77422 44 ft 88 kts 150°
2026-05-01 09:07 35.54568 139.77922 44 ft 145 kts 150°
2026-05-01 09:07 35.53567 139.78641 243 ft 175 kts 150°
2026-05-01 09:07 35.52537 139.79387 951 ft 173 kts 151°
2026-05-01 09:08 35.51512 139.80110 1665 ft 173 kts 152°
2026-05-01 09:08 35.50466 139.80844 2164 ft 181 kts 152°
2026-05-01 09:08 35.49328 139.81641 2492 ft 197 kts 153°
2026-05-01 09:08 35.48074 139.82520 2812 ft 216 kts 152°
2026-05-01 09:09 35.46719 139.83469 3105 ft 236 kts 153°
2026-05-01 09:09 35.45226 139.84508 3512 ft 252 kts 155°
2026-05-01 09:09 35.43568 139.85091 4125 ft 254 kts 181°
2026-05-01 09:09 35.41867 139.84656 4852 ft 254 kts 206°
2026-05-01 09:10 35.40406 139.83434 5525 ft 258 kts 218°
2026-05-01 09:10 35.39006 139.82069 6201 ft 261 kts 218°
2026-05-01 09:10 35.37564 139.80662 6850 ft 265 kts 218°
2026-05-01 09:10 35.36122 139.79266 7504 ft 268 kts 219°
2026-05-01 09:11 35.34665 139.77861 8113 ft 272 kts 219°
2026-05-01 09:11 35.33171 139.76425 8739 ft 274 kts 219°
2026-05-01 09:11 35.31670 139.74982 9338 ft 278 kts 220°
2026-05-01 09:11 35.30173 139.73450 9921 ft 281 kts 221°
2026-05-01 09:12 35.28679 139.71884 10400 ft 288 kts 222°
2026-05-01 09:12 35.27123 139.70250 10657 ft 303 kts 222°
2026-05-01 09:12 35.25487 139.68535 10915 ft 317 kts 222°
2026-05-01 09:12 35.23760 139.66728 11167 ft 331 kts 222°
2026-05-01 09:13 35.21992 139.64880 11478 ft 341 kts 222°
2026-05-01 09:13 35.20166 139.62978 11990 ft 346 kts 222°
2026-05-01 09:13 35.18351 139.61087 12541 ft 348 kts 222°
2026-05-01 09:13 35.16504 139.59168 13096 ft 350 kts 222°
2026-05-01 09:14 35.14657 139.57248 13641 ft 352 kts 222°
2026-05-01 09:14 35.12794 139.55312 14177 ft 354 kts 223°
2026-05-01 09:14 35.10897 139.53340 14706 ft 356 kts 223°
2026-05-01 09:14 35.09059 139.51323 15204 ft 356 kts 230°
2026-05-01 09:15 35.07643 139.48897 15680 ft 355 kts 245°
2026-05-01 09:15 35.06791 139.46083 16169 ft 354 kts 258°
2026-05-01 09:15 35.06281 139.43152 16670 ft 355 kts 260°
2026-05-01 09:15 35.05809 139.40204 17135 ft 356 kts 260°
2026-05-01 09:16 35.05329 139.37219 17560 ft 359 kts 260°
2026-05-01 09:16 35.04836 139.34207 17939 ft 363 kts 259°
2026-05-01 09:16 35.04332 139.31160 18377 ft 364 kts 259°
2026-05-01 09:17 35.03328 139.25133 19238 ft 367 kts 259°
2026-05-01 09:17 35.02814 139.22049 19658 ft 368 kts 259°
2026-05-01 09:17 35.01787 139.15918 20442 ft 371 kts 259°
2026-05-01 09:18 35.01269 139.12854 20804 ft 373 kts 259°
2026-05-01 09:18 35.00212 139.06615 21506 ft 377 kts 260°
2026-05-01 09:19 34.99179 139.00291 22154 ft 381 kts 263°
2026-05-01 09:19 34.98821 138.97111 22460 ft 383 kts 266°
2026-05-01 09:19 34.98601 138.93872 22763 ft 384 kts 268°
2026-05-01 09:20 34.98264 138.87364 23408 ft 387 kts 268°
2026-05-01 09:20 34.97921 138.80795 24026 ft 389 kts 268°
2026-05-01 09:21 34.97571 138.74194 24611 ft 392 kts 268°
2026-05-01 09:21 34.97395 138.70882 24890 ft 393 kts 268°
2026-05-01 09:21 34.97035 138.64208 25443 ft 395 kts 268°
2026-05-01 09:22 34.96669 138.57500 25954 ft 398 kts 268°
2026-05-01 09:22 34.96299 138.50775 26446 ft 400 kts 268°
2026-05-01 09:23 34.96109 138.47359 26681 ft 401 kts 268°
2026-05-01 09:23 34.95729 138.40598 27196 ft 401 kts 268°
2026-05-01 09:24 34.95342 138.33803 27641 ft 404 kts 268°
2026-05-01 09:24 34.95145 138.30360 27867 ft 405 kts 268°
2026-05-01 09:24 34.94747 138.23511 28300 ft 407 kts 268°
2026-05-01 09:25 34.94346 138.16585 28813 ft 407 kts 268°
2026-05-01 09:25 34.93955 138.09766 29421 ft 404 kts 268°
2026-05-01 09:26 34.93758 138.06358 29720 ft 403 kts 268°
2026-05-01 09:26 34.93357 137.99562 30292 ft 401 kts 268°
2026-05-01 09:26 34.93159 137.96258 30558 ft 400 kts 268°
2026-05-01 09:27 34.92753 137.89561 31105 ft 399 kts 268°
2026-05-01 09:27 34.92547 137.86180 31378 ft 398 kts 268°
2026-05-01 09:27 34.92342 137.82814 31646 ft 397 kts 268°
2026-05-01 09:28 34.92139 137.79489 31865 ft 397 kts 268°
2026-05-01 09:28 34.91926 137.76088 32055 ft 398 kts 267°
2026-05-01 09:28 34.91626 137.72774 32244 ft 399 kts 264°
2026-05-01 09:28 34.91184 137.69437 32419 ft 401 kts 262°
2026-05-01 09:29 34.89870 137.62804 32753 ft 405 kts 257°
2026-05-01 09:29 34.88998 137.59564 32887 ft 407 kts 253°
2026-05-01 09:30 34.87027 137.53036 33155 ft 410 kts 253°
2026-05-01 09:30 34.86047 137.49780 33321 ft 410 kts 253°
2026-05-01 09:30 34.84122 137.43228 33490 ft 411 kts 255°
2026-05-01 09:31 34.82251 137.36664 33513 ft 411 kts 255°
2026-05-01 09:32 34.79435 137.26800 33544 ft 412 kts 254°
2026-05-01 09:32 34.76598 137.16933 33566 ft 412 kts 254°
2026-05-01 09:33 34.74698 137.10361 33571 ft 411 kts 254°
2026-05-01 09:34 34.71619 137.00591 33575 ft 414 kts 249°
2026-05-01 09:34 34.67397 136.91380 33575 ft 418 kts 240°
2026-05-01 09:35 34.62113 136.82855 33576 ft 420 kts 237°
2026-05-01 09:36 34.58506 136.77280 33576 ft 419 kts 236°
2026-05-01 09:36 34.54917 136.71747 33576 ft 419 kts 237°
2026-05-01 09:37 34.51292 136.66165 33575 ft 419 kts 237°
2026-05-01 09:37 34.45879 136.57848 33576 ft 420 kts 236°
2026-05-01 09:38 34.40439 136.49509 33576 ft 419 kts 237°
2026-05-01 09:39 34.34993 136.41180 33576 ft 419 kts 236°
2026-05-01 09:39 34.31368 136.35648 33576 ft 419 kts 236°
2026-05-01 09:40 34.25942 136.27351 33578 ft 420 kts 236°
2026-05-01 09:41 34.22321 136.21834 33587 ft 420 kts 236°
2026-05-01 09:41 34.16859 136.13539 33615 ft 420 kts 236°
2026-05-01 09:42 34.13228 136.08037 33635 ft 419 kts 236°
2026-05-01 09:43 34.05940 135.97026 33656 ft 419 kts 236°
2026-05-01 09:43 34.02306 135.91548 33661 ft 419 kts 236°
2026-05-01 09:44 33.96819 135.83290 33668 ft 419 kts 236°
2026-05-01 09:45 33.93181 135.77826 33676 ft 419 kts 236°
2026-05-01 09:45 33.87690 135.69615 33683 ft 419 kts 236°
2026-05-01 09:46 33.84011 135.64153 33686 ft 418 kts 236°
2026-05-01 09:46 33.80363 135.58720 33686 ft 418 kts 236°
2026-05-01 09:47 33.76714 135.53282 33687 ft 418 kts 236°
2026-05-01 09:47 33.73050 135.47827 33686 ft 419 kts 236°
2026-05-01 09:48 33.69387 135.42378 33686 ft 418 kts 236°
2026-05-01 09:48 33.65751 135.36981 33687 ft 419 kts 236°
2026-05-01 09:49 33.62089 135.31538 33687 ft 419 kts 236°
2026-05-01 09:49 33.58400 135.26057 33685 ft 419 kts 236°
2026-05-01 09:50 33.54749 135.20656 33688 ft 419 kts 236°
2026-05-01 09:50 33.51063 135.15218 33687 ft 419 kts 236°
2026-05-01 09:51 33.47377 135.09790 33687 ft 419 kts 236°
2026-05-01 09:51 33.43891 135.04228 33686 ft 416 kts 241°
2026-05-01 09:52 33.40958 134.98296 33686 ft 411 kts 246°
2026-05-01 09:52 33.38609 134.92072 33686 ft 408 kts 252°
2026-05-01 09:53 33.36794 134.85673 33687 ft 407 kts 255°
2026-05-01 09:53 33.35065 134.79245 33686 ft 406 kts 255°
2026-05-01 09:54 33.33329 134.72778 33688 ft 406 kts 255°
2026-05-01 09:54 33.31606 134.66363 33687 ft 406 kts 255°
2026-05-01 09:55 33.29876 134.59917 33687 ft 407 kts 255°
2026-05-01 09:55 33.28140 134.53482 33690 ft 407 kts 255°
2026-05-01 09:56 33.26399 134.47051 33697 ft 407 kts 255°
2026-05-01 09:56 33.24657 134.40639 33702 ft 407 kts 255°
2026-05-01 09:57 33.22912 134.34222 33712 ft 407 kts 255°
2026-05-01 09:57 33.21151 134.27757 33712 ft 406 kts 255°
2026-05-01 09:58 33.19392 134.21326 33713 ft 407 kts 254°
2026-05-01 09:58 33.17345 134.15050 33713 ft 409 kts 249°
2026-05-01 09:59 33.14734 134.08949 33714 ft 412 kts 245°
2026-05-01 09:59 33.11951 134.03027 33713 ft 412 kts 245°
2026-05-01 10:00 33.09135 133.97055 33712 ft 414 kts 244°
2026-05-01 10:00 33.06302 133.91060 33712 ft 417 kts 244°
2026-05-01 10:01 33.03440 133.85023 33712 ft 420 kts 244°
2026-05-01 10:01 33.00537 133.78914 33712 ft 424 kts 243°
2026-05-01 10:02 32.97624 133.72798 33712 ft 427 kts 243°
2026-05-01 10:02 32.94670 133.66609 33713 ft 430 kts 243°
2026-05-01 10:03 32.91779 133.60376 33713 ft 430 kts 246°
2026-05-01 10:03 32.89399 133.53908 33714 ft 428 kts 251°
2026-05-01 10:04 32.87535 133.47157 33715 ft 428 kts 255°
2026-05-01 10:04 32.85838 133.40401 33713 ft 427 kts 255°
2026-05-01 10:05 32.84150 133.33646 33715 ft 427 kts 255°
2026-05-01 10:05 32.82452 133.26834 33714 ft 427 kts 255°
2026-05-01 10:06 32.80762 133.20081 33714 ft 427 kts 255°
2026-05-01 10:06 32.79065 133.13335 33714 ft 427 kts 255°
2026-05-01 10:07 32.77359 133.06566 33714 ft 427 kts 255°
2026-05-01 10:07 32.75354 132.99896 33714 ft 429 kts 249°
2026-05-01 10:08 32.71308 132.90389 33718 ft 430 kts 243°
2026-05-01 10:09 32.68418 132.84186 33735 ft 430 kts 243°
2026-05-01 10:09 32.65517 132.77975 33758 ft 430 kts 243°
2026-05-01 10:10 32.62597 132.71730 33784 ft 430 kts 243°
2026-05-01 10:10 32.58254 132.62460 33812 ft 430 kts 243°
2026-05-01 10:11 32.55347 132.56271 33816 ft 430 kts 243°
2026-05-01 10:11 32.52449 132.50110 33817 ft 430 kts 243°
2026-05-01 10:12 32.50016 132.44943 33818 ft 430 kts 243°
2026-05-01 10:13 32.45135 132.34607 33823 ft 430 kts 243°
2026-05-01 10:13 32.42223 132.28427 33824 ft 430 kts 243°
2026-05-01 10:14 32.37840 132.19159 33824 ft 430 kts 243°
2026-05-01 10:14 32.34922 132.13014 33824 ft 430 kts 243°
2026-05-01 10:15 32.31989 132.06850 33824 ft 430 kts 243°
2026-05-01 10:15 32.29061 132.00707 33823 ft 430 kts 243°
2026-05-01 10:16 32.26093 131.94492 33829 ft 430 kts 243°
2026-05-01 10:17 32.21682 131.85274 33846 ft 430 kts 243°
2026-05-01 10:17 32.17256 131.76045 33851 ft 430 kts 243°
2026-05-01 10:18 32.12838 131.66859 33852 ft 430 kts 243°
2026-05-01 10:19 32.09898 131.60757 33852 ft 430 kts 243°
2026-05-01 10:19 32.06928 131.54604 33852 ft 430 kts 243°
2026-05-01 10:20 32.02505 131.45459 33852 ft 430 kts 243°
2026-05-01 10:20 31.99528 131.39317 33852 ft 430 kts 243°
2026-05-01 10:21 31.95095 131.30174 33853 ft 430 kts 243°
2026-05-01 10:22 31.90623 131.20962 33855 ft 430 kts 242°
2026-05-01 10:23 31.86147 131.11852 33870 ft 430 kts 242°
2026-05-01 10:23 31.81658 131.02714 33890 ft 430 kts 242°
2026-05-01 10:24 31.75706 130.90590 33905 ft 430 kts 242°
2026-05-01 10:25 31.69704 130.78398 33907 ft 431 kts 242°
2026-05-01 10:26 31.66715 130.72340 33907 ft 431 kts 242°
2026-05-01 10:27 31.60701 130.60182 33907 ft 431 kts 242°
2026-05-01 10:28 31.56183 130.51073 33907 ft 431 kts 242°
2026-05-01 10:28 31.51681 130.42017 33907 ft 431 kts 242°
2026-05-01 10:29 31.47145 130.32912 33907 ft 431 kts 242°
2026-05-01 10:30 31.41124 130.20830 33907 ft 431 kts 242°
2026-05-01 10:31 31.35055 130.08733 33907 ft 431 kts 242°
2026-05-01 10:32 31.30504 129.99695 33906 ft 431 kts 241°
2026-05-01 10:33 31.23452 129.88289 33907 ft 434 kts 234°
2026-05-01 10:34 31.17896 129.79984 33907 ft 434 kts 234°
2026-05-01 10:34 31.14193 129.74455 33907 ft 433 kts 234°
2026-05-01 10:35 31.08616 129.66147 33907 ft 434 kts 234°
2026-05-01 10:35 31.04902 129.60622 33907 ft 433 kts 234°
2026-05-01 10:36 30.99340 129.52357 33908 ft 435 kts 234°
2026-05-01 10:37 30.95587 129.46794 33909 ft 437 kts 234°
2026-05-01 10:37 30.89952 129.38458 33911 ft 439 kts 233°
2026-05-01 10:38 30.86142 129.32871 33911 ft 441 kts 233°
2026-05-01 10:38 30.82330 129.27252 33913 ft 441 kts 233°
2026-05-01 10:39 30.78548 129.21681 33919 ft 441 kts 233°
2026-05-01 10:39 30.74788 129.16040 33925 ft 441 kts 234°
2026-05-01 10:40 30.71070 129.10349 33929 ft 441 kts 234°
2026-05-01 10:40 30.67359 129.04686 33931 ft 442 kts 234°
2026-05-01 10:41 30.63616 128.98996 33932 ft 443 kts 234°
2026-05-01 10:42 30.57992 128.90468 33933 ft 445 kts 234°
2026-05-01 10:42 30.54218 128.84757 33933 ft 446 kts 234°
2026-05-01 10:43 30.50444 128.79054 33935 ft 446 kts 234°
2026-05-01 10:43 30.46663 128.73351 33939 ft 447 kts 234°
2026-05-01 10:44 30.42878 128.67645 33948 ft 447 kts 234°
2026-05-01 10:44 30.39100 128.61963 33962 ft 447 kts 234°
2026-05-01 10:45 30.35290 128.56239 33973 ft 446 kts 234°
2026-05-01 10:45 30.31502 128.50555 33976 ft 446 kts 234°
2026-05-01 10:46 30.27725 128.44897 33976 ft 446 kts 234°
2026-05-01 10:46 30.23927 128.39215 33978 ft 446 kts 234°
2026-05-01 10:47 30.20145 128.33563 33984 ft 447 kts 233°
2026-05-01 10:47 30.16348 128.27873 33986 ft 447 kts 233°
2026-05-01 10:48 30.12534 128.22179 33988 ft 447 kts 233°
2026-05-01 10:48 30.08740 128.16531 33988 ft 447 kts 233°
2026-05-01 10:49 30.04926 128.10869 33988 ft 447 kts 233°
2026-05-01 10:49 30.01115 128.05219 33988 ft 447 kts 233°
2026-05-01 10:50 29.97296 127.99567 33988 ft 447 kts 233°
2026-05-01 10:50 29.93465 127.93909 33988 ft 447 kts 233°
2026-05-01 10:51 29.89650 127.88285 33988 ft 447 kts 233°
2026-05-01 10:51 29.85772 127.82697 33988 ft 447 kts 231°
2026-05-01 10:52 29.81714 127.77237 33988 ft 447 kts 231°
2026-05-01 10:52 29.77689 127.71838 33988 ft 447 kts 231°
2026-05-01 10:53 29.73630 127.66398 34050 ft 449 kts 231°
2026-05-01 10:53 29.71578 127.63650 34294 ft 448 kts 231°
2026-05-01 10:53 29.69556 127.60944 34569 ft 446 kts 231°
2026-05-01 10:53 29.67547 127.58257 34810 ft 445 kts 231°
2026-05-01 10:54 29.65524 127.55554 35026 ft 445 kts 231°
2026-05-01 10:54 29.63529 127.52891 35231 ft 444 kts 231°
2026-05-01 10:54 29.61506 127.50191 35431 ft 444 kts 231°
2026-05-01 10:54 29.59492 127.47504 35625 ft 443 kts 231°
2026-05-01 10:55 29.57544 127.44772 35820 ft 442 kts 233°
2026-05-01 10:55 29.55645 127.42019 35980 ft 442 kts 233°
2026-05-01 10:55 29.53731 127.39242 35998 ft 442 kts 233°
2026-05-01 10:56 29.49923 127.33720 36010 ft 442 kts 233°
2026-05-01 10:56 29.46136 127.28217 36013 ft 442 kts 233°
2026-05-01 10:57 29.42328 127.22704 36014 ft 442 kts 233°
2026-05-01 10:57 29.38488 127.17164 36014 ft 442 kts 233°
2026-05-01 10:58 29.34670 127.11666 36014 ft 441 kts 232°
2026-05-01 10:58 29.30869 127.06201 36014 ft 441 kts 232°
2026-05-01 10:59 29.27055 127.00727 36014 ft 440 kts 232°
2026-05-01 10:59 29.23219 126.95227 36014 ft 440 kts 232°
2026-05-01 11:00 29.19429 126.89803 36014 ft 440 kts 232°
2026-05-01 11:00 29.15605 126.84338 36014 ft 440 kts 232°
2026-05-01 11:01 29.11788 126.78890 36014 ft 440 kts 232°
2026-05-01 11:01 29.07965 126.73441 36016 ft 438 kts 232°
2026-05-01 11:02 29.04170 126.68040 36021 ft 436 kts 232°
2026-05-01 11:02 29.00376 126.62652 36030 ft 433 kts 232°
2026-05-01 11:03 28.96625 126.57332 36038 ft 430 kts 231°
2026-05-01 11:03 28.92770 126.52087 36045 ft 429 kts 230°
2026-05-01 11:04 28.88914 126.46909 36047 ft 429 kts 230°
2026-05-01 11:04 28.85062 126.41764 36049 ft 429 kts 230°
2026-05-01 11:05 28.81202 126.36592 36047 ft 429 kts 230°
2026-05-01 11:05 28.77352 126.31408 36048 ft 429 kts 230°
2026-05-01 11:06 28.73497 126.26213 36050 ft 429 kts 230°
2026-05-01 11:06 28.69658 126.21064 36049 ft 429 kts 230°
2026-05-01 11:07 28.63867 126.13319 36049 ft 429 kts 230°
2026-05-01 11:07 28.60113 126.08068 36036 ft 428 kts 232°
2026-05-01 11:08 28.56394 126.02782 35988 ft 429 kts 232°
2026-05-01 11:09 28.50767 125.94833 35953 ft 429 kts 231°
2026-05-01 11:09 28.47043 125.89590 35944 ft 429 kts 231°
2026-05-01 11:10 28.41402 125.81667 35940 ft 429 kts 231°
2026-05-01 11:10 28.37682 125.76450 35940 ft 429 kts 231°
2026-05-01 11:11 28.33924 125.71188 35939 ft 429 kts 231°
2026-05-01 11:11 28.30177 125.65947 35939 ft 429 kts 231°
2026-05-01 11:12 28.26420 125.60699 35939 ft 429 kts 231°
2026-05-01 11:12 28.22657 125.55448 35940 ft 429 kts 231°
2026-05-01 11:13 28.18896 125.50208 35939 ft 429 kts 231°
2026-05-01 11:13 28.15144 125.44986 35939 ft 429 kts 231°
2026-05-01 11:14 28.11392 125.39771 35939 ft 429 kts 231°
2026-05-01 11:14 28.07618 125.34531 35940 ft 429 kts 231°
2026-05-01 11:15 28.03867 125.29305 35940 ft 429 kts 231°
2026-05-01 11:15 28.00105 125.24078 35939 ft 429 kts 231°
2026-05-01 11:16 27.96319 125.18835 35939 ft 429 kts 231°
2026-05-01 11:16 27.92554 125.13635 35940 ft 429 kts 231°
2026-05-01 11:17 27.88777 125.08429 35939 ft 429 kts 231°
2026-05-01 11:17 27.84990 125.03249 35940 ft 429 kts 231°
2026-05-01 11:18 27.81179 124.98020 35938 ft 431 kts 231°
2026-05-01 11:18 27.77372 124.92792 35939 ft 433 kts 231°
2026-05-01 11:19 27.73563 124.87566 35938 ft 436 kts 231°
2026-05-01 11:19 27.69693 124.82261 35939 ft 438 kts 230°
2026-05-01 11:20 27.65819 124.76960 35939 ft 441 kts 230°
2026-05-01 11:20 27.61941 124.71656 35940 ft 441 kts 231°
2026-05-01 11:21 27.58055 124.66329 35940 ft 441 kts 231°
2026-05-01 11:21 27.54150 124.60985 35940 ft 441 kts 231°
2026-05-01 11:22 27.50255 124.55665 35940 ft 441 kts 231°
2026-05-01 11:22 27.46373 124.50371 35940 ft 441 kts 231°
2026-05-01 11:23 27.42465 124.45047 35940 ft 441 kts 230°
2026-05-01 11:23 27.38560 124.39736 35940 ft 441 kts 230°
2026-05-01 11:24 27.34655 124.34431 35940 ft 441 kts 230°
2026-05-01 11:25 27.28817 124.26475 35940 ft 441 kts 230°
2026-05-01 11:25 27.22963 124.18542 35966 ft 441 kts 230°
2026-05-01 11:26 27.17086 124.10607 36000 ft 441 kts 230°
2026-05-01 11:27 27.13167 124.05328 36009 ft 441 kts 230°
2026-05-01 11:27 27.09250 124.00053 36012 ft 441 kts 230°
2026-05-01 11:28 27.05299 123.94767 36014 ft 441 kts 230°
2026-05-01 11:28 27.01376 123.89548 36014 ft 441 kts 230°
2026-05-01 11:29 26.95438 123.81670 36014 ft 441 kts 230°
2026-05-01 11:30 26.89514 123.73827 36014 ft 441 kts 229°
2026-05-01 11:30 26.85535 123.68604 36014 ft 441 kts 229°
2026-05-01 11:31 26.81543 123.63357 36014 ft 441 kts 229°
2026-05-01 11:31 26.77575 123.58130 36014 ft 441 kts 229°
2026-05-01 11:32 26.73619 123.52919 36014 ft 441 kts 229°
2026-05-01 11:32 26.69625 123.47665 36014 ft 441 kts 229°
2026-05-01 11:33 26.65632 123.42419 36014 ft 441 kts 229°
2026-05-01 11:33 26.61661 123.37202 36014 ft 442 kts 229°
2026-05-01 11:34 26.57687 123.31979 36014 ft 441 kts 229°
2026-05-01 11:34 26.53722 123.26761 36014 ft 441 kts 229°
2026-05-01 11:35 26.49703 123.21497 36014 ft 441 kts 229°
2026-05-01 11:35 26.45653 123.16207 36014 ft 441 kts 229°
2026-05-01 11:36 26.41597 123.10922 36014 ft 441 kts 229°
2026-05-01 11:36 26.37540 123.05640 36014 ft 440 kts 229°
2026-05-01 11:37 26.33526 123.00420 36015 ft 439 kts 229°
2026-05-01 11:37 26.29507 122.95180 36014 ft 437 kts 229°
2026-05-01 11:38 26.25489 122.89955 36015 ft 436 kts 228°
2026-05-01 11:38 26.21489 122.84766 36014 ft 435 kts 228°
2026-05-01 11:39 26.17487 122.79586 36014 ft 435 kts 228°
2026-05-01 11:39 26.13492 122.74420 36014 ft 435 kts 228°
2026-05-01 11:40 26.09518 122.69287 36014 ft 435 kts 228°
2026-05-01 11:40 26.05520 122.64131 36014 ft 434 kts 228°
2026-05-01 11:41 26.01487 122.58937 36013 ft 434 kts 228°
2026-05-01 11:41 25.97500 122.53811 36007 ft 434 kts 228°
2026-05-01 11:42 25.93489 122.48651 35998 ft 434 kts 228°
2026-05-01 11:42 25.89495 122.43501 35989 ft 435 kts 228°
2026-05-01 11:43 25.85507 122.38405 35977 ft 435 kts 228°
2026-05-01 11:43 25.81474 122.33245 35969 ft 435 kts 228°
2026-05-01 11:44 25.75489 122.25548 35979 ft 435 kts 228°
2026-05-01 11:44 25.71499 122.20440 35983 ft 435 kts 228°
2026-05-01 11:45 25.67537 122.15381 35985 ft 435 kts 228°
2026-05-01 11:45 25.63588 122.10345 35985 ft 435 kts 228°
2026-05-01 11:46 25.59641 122.05312 35986 ft 435 kts 228°
2026-05-01 11:46 25.55657 122.00234 35986 ft 435 kts 228°
2026-05-01 11:47 25.51702 121.95194 35986 ft 435 kts 228°
2026-05-01 11:47 25.47749 121.90170 35986 ft 435 kts 228°
2026-05-01 11:48 25.43773 121.85124 35986 ft 435 kts 228°
2026-05-01 11:48 25.39795 121.80085 35986 ft 435 kts 228°
2026-05-01 11:49 25.35836 121.75075 35986 ft 435 kts 228°
2026-05-01 11:49 25.31835 121.70018 35986 ft 435 kts 228°
2026-05-01 11:50 25.27863 121.65005 35986 ft 435 kts 228°
2026-05-01 11:50 25.23885 121.59990 35986 ft 435 kts 228°
2026-05-01 11:51 25.19882 121.54951 35986 ft 435 kts 228°
2026-05-01 11:51 25.15941 121.49946 35986 ft 435 kts 229°
2026-05-01 11:52 25.12015 121.44827 35986 ft 435 kts 229°
2026-05-01 11:52 25.08126 121.39767 35985 ft 436 kts 229°
2026-05-01 11:53 25.04171 121.34641 35983 ft 438 kts 228°
2026-05-01 11:53 25.00217 121.29502 35978 ft 441 kts 228°
2026-05-01 11:54 24.96235 121.24346 35972 ft 443 kts 228°
2026-05-01 11:54 24.92236 121.19188 35967 ft 444 kts 228°
2026-05-01 11:55 24.88212 121.14018 35964 ft 443 kts 227°
2026-05-01 11:55 24.84187 121.08869 35962 ft 442 kts 227°
2026-05-01 11:56 24.80205 121.03745 35962 ft 440 kts 227°
2026-05-01 11:56 24.76261 120.98669 35962 ft 438 kts 227°
2026-05-01 11:57 24.72294 120.93576 35965 ft 436 kts 227°
2026-05-01 11:57 24.68362 120.88535 35971 ft 436 kts 227°
2026-05-01 11:58 24.64403 120.83467 35977 ft 436 kts 227°
2026-05-01 11:59 24.58484 120.75900 35984 ft 436 kts 227°
2026-05-01 11:59 24.54436 120.70932 35985 ft 435 kts 225°
2026-05-01 12:00 24.48140 120.63734 35986 ft 435 kts 224°
2026-05-01 12:01 24.41864 120.56582 35986 ft 435 kts 224°
2026-05-01 12:01 24.37654 120.51791 35986 ft 435 kts 224°
2026-05-01 12:02 24.33445 120.47006 35986 ft 435 kts 224°
2026-05-01 12:02 24.29254 120.42248 35986 ft 435 kts 224°
2026-05-01 12:03 24.25054 120.37485 35986 ft 435 kts 224°
2026-05-01 12:03 24.20845 120.32697 35986 ft 435 kts 224°
2026-05-01 12:04 24.16647 120.27902 35986 ft 435 kts 224°
2026-05-01 12:04 24.12460 120.23151 35986 ft 435 kts 224°
2026-05-01 12:05 24.08251 120.18394 35986 ft 435 kts 224°
2026-05-01 12:05 24.01930 120.11267 35986 ft 435 kts 224°
2026-05-01 12:06 23.97740 120.06533 35986 ft 435 kts 224°
2026-05-01 12:06 23.93536 120.01781 35986 ft 435 kts 224°
2026-05-01 12:07 23.89322 119.97036 35987 ft 435 kts 224°
2026-05-01 12:07 23.85096 119.92315 35986 ft 435 kts 224°
2026-05-01 12:08 23.80884 119.87601 35986 ft 435 kts 224°
2026-05-01 12:08 23.76669 119.82880 35986 ft 435 kts 224°
2026-05-01 12:09 23.72438 119.78141 35986 ft 435 kts 224°
2026-05-01 12:09 23.68218 119.73419 35986 ft 435 kts 224°
2026-05-01 12:10 23.61958 119.66324 35986 ft 436 kts 227°
2026-05-01 12:11 23.56458 119.58385 35986 ft 438 kts 236°
2026-05-01 12:11 23.53196 119.52753 35986 ft 438 kts 236°
2026-05-01 12:12 23.49957 119.47153 35986 ft 438 kts 236°
2026-05-01 12:12 23.46698 119.41531 35986 ft 438 kts 236°
2026-05-01 12:13 23.43438 119.35918 35986 ft 438 kts 236°
2026-05-01 12:13 23.40181 119.30299 35986 ft 438 kts 236°
2026-05-01 12:14 23.36933 119.24698 35986 ft 438 kts 236°
2026-05-01 12:14 23.33676 119.19103 35986 ft 438 kts 236°
2026-05-01 12:15 23.30394 119.13477 35986 ft 438 kts 235°
2026-05-01 12:15 23.27147 119.07918 35986 ft 438 kts 235°
2026-05-01 12:16 23.23861 119.02301 35985 ft 438 kts 236°
2026-05-01 12:16 23.20592 118.96720 35985 ft 440 kts 236°
2026-05-01 12:17 23.17256 118.91034 35985 ft 443 kts 236°
2026-05-01 12:17 23.13903 118.85323 35985 ft 445 kts 236°
2026-05-01 12:18 23.10560 118.79636 35985 ft 447 kts 236°
2026-05-01 12:18 23.07226 118.73968 35986 ft 447 kts 236°
2026-05-01 12:19 23.03865 118.68263 35986 ft 447 kts 236°
2026-05-01 12:19 23.00510 118.62579 35986 ft 447 kts 236°
2026-05-01 12:20 22.97141 118.56878 35986 ft 447 kts 236°
2026-05-01 12:20 22.93781 118.51191 35986 ft 447 kts 236°
2026-05-01 12:21 22.90424 118.45529 35986 ft 447 kts 235°
2026-05-01 12:21 22.87039 118.39873 35986 ft 446 kts 235°
2026-05-01 12:22 22.83654 118.34232 35985 ft 446 kts 234°
2026-05-01 12:22 22.80273 118.28552 35993 ft 446 kts 235°
2026-05-01 12:23 22.76912 118.22913 36002 ft 446 kts 234°
2026-05-01 12:23 22.73541 118.17274 36004 ft 446 kts 234°
2026-05-01 12:24 22.70178 118.11661 36002 ft 446 kts 234°
2026-05-01 12:24 22.66805 118.06039 35996 ft 446 kts 234°
2026-05-01 12:25 22.61745 117.97618 35990 ft 446 kts 234°
2026-05-01 12:26 22.58384 117.91991 35988 ft 446 kts 235°
2026-05-01 12:26 22.53359 117.83515 35987 ft 446 kts 235°
2026-05-01 12:27 22.48266 117.74962 35987 ft 446 kts 235°
2026-05-01 12:28 22.43230 117.66528 35987 ft 446 kts 235°
2026-05-01 12:29 22.38208 117.58089 35986 ft 447 kts 237°
2026-05-01 12:29 22.34478 117.48841 35988 ft 451 kts 252°
2026-05-01 12:30 22.33302 117.42174 35987 ft 454 kts 263°
2026-05-01 12:30 22.33122 117.38800 35989 ft 455 kts 266°
2026-05-01 12:31 22.33011 117.31953 35988 ft 455 kts 267°
2026-05-01 12:31 22.32913 117.25112 35987 ft 455 kts 267°
2026-05-01 12:32 22.32796 117.18288 35987 ft 455 kts 267°
2026-05-01 12:32 22.32606 117.08276 35986 ft 456 kts 267°
2026-05-01 12:33 22.32464 117.01421 35986 ft 460 kts 268°
2026-05-01 12:33 22.32322 116.94513 35987 ft 461 kts 269°
2026-05-01 12:34 22.32178 116.87578 35988 ft 461 kts 269°
2026-05-01 12:34 22.32039 116.80713 35988 ft 460 kts 269°
2026-05-01 12:35 22.31895 116.73815 35988 ft 460 kts 269°
2026-05-01 12:35 22.31745 116.66911 35988 ft 460 kts 269°
2026-05-01 12:36 22.31591 116.60004 35988 ft 460 kts 269°
2026-05-01 12:36 22.31433 116.53108 35988 ft 460 kts 269°
2026-05-01 12:37 22.31274 116.46233 35988 ft 460 kts 269°
2026-05-01 12:37 22.31111 116.39360 35988 ft 460 kts 269°
2026-05-01 12:38 22.30944 116.32408 35987 ft 460 kts 269°
2026-05-01 12:38 22.30775 116.25524 35987 ft 460 kts 269°
2026-05-01 12:39 22.30602 116.18617 35987 ft 460 kts 269°
2026-05-01 12:39 22.30428 116.11771 35987 ft 460 kts 269°
2026-05-01 12:40 22.30247 116.04823 35978 ft 460 kts 269°
2026-05-01 12:40 22.30155 116.01363 35723 ft 460 kts 269°
2026-05-01 12:40 22.30063 115.97924 35469 ft 457 kts 269°
2026-05-01 12:41 22.29970 115.94508 35121 ft 455 kts 269°
2026-05-01 12:41 22.29875 115.91109 34658 ft 453 kts 269°
2026-05-01 12:41 22.29780 115.87687 34079 ft 452 kts 269°
2026-05-01 12:41 22.29687 115.84302 33449 ft 453 kts 269°
2026-05-01 12:42 22.29589 115.80905 32793 ft 455 kts 269°
2026-05-01 12:42 22.29474 115.77483 32116 ft 456 kts 269°
2026-05-01 12:42 22.29352 115.74071 31434 ft 458 kts 269°
2026-05-01 12:42 22.29226 115.70655 30744 ft 459 kts 269°
2026-05-01 12:43 22.29098 115.67219 30038 ft 460 kts 269°
2026-05-01 12:43 22.28970 115.63766 29319 ft 462 kts 269°
2026-05-01 12:43 22.28839 115.60305 28590 ft 463 kts 269°
2026-05-01 12:43 22.28707 115.56815 28074 ft 458 kts 269°
2026-05-01 12:44 22.28577 115.53398 27602 ft 453 kts 269°
2026-05-01 12:44 22.28447 115.50026 27125 ft 449 kts 269°
2026-05-01 12:44 22.28189 115.43375 26164 ft 440 kts 269°
2026-05-01 12:45 22.27933 115.36869 25210 ft 433 kts 269°
2026-05-01 12:45 22.27803 115.33580 24724 ft 429 kts 269°
2026-05-01 12:45 22.27675 115.30395 24253 ft 426 kts 269°
2026-05-01 12:46 22.27547 115.27232 23782 ft 422 kts 269°
2026-05-01 12:46 22.27419 115.24079 23312 ft 418 kts 269°
2026-05-01 12:46 22.27293 115.20956 22843 ft 415 kts 269°
2026-05-01 12:46 22.27165 115.17832 22374 ft 411 kts 269°
2026-05-01 12:47 22.26950 115.14779 21920 ft 408 kts 265°
2026-05-01 12:47 22.26570 115.11754 21469 ft 406 kts 262°
2026-05-01 12:47 22.26060 115.08780 21022 ft 402 kts 261°
2026-05-01 12:47 22.25522 115.05838 20572 ft 399 kts 260°
2026-05-01 12:48 22.24983 115.02902 20120 ft 396 kts 260°
2026-05-01 12:48 22.24462 115.00037 19672 ft 393 kts 260°
2026-05-01 12:48 22.23941 114.97153 19217 ft 389 kts 260°
2026-05-01 12:48 22.23496 114.94285 18759 ft 386 kts 264°
2026-05-01 12:49 22.23232 114.91423 18300 ft 382 kts 268°
2026-05-01 12:49 22.23139 114.88566 17840 ft 379 kts 270°
2026-05-01 12:49 22.23107 114.85725 17381 ft 376 kts 270°
2026-05-01 12:49 22.23080 114.82898 16919 ft 374 kts 270°
2026-05-01 12:50 22.23052 114.80101 16463 ft 371 kts 270°
2026-05-01 12:50 22.23021 114.77329 16008 ft 369 kts 270°
2026-05-01 12:50 22.22989 114.74560 15554 ft 366 kts 270°
2026-05-01 12:50 22.22956 114.71832 15102 ft 363 kts 270°
2026-05-01 12:51 22.22922 114.69126 14654 ft 361 kts 270°
2026-05-01 12:51 22.22887 114.66423 14273 ft 356 kts 270°
2026-05-01 12:51 22.22817 114.61289 14111 ft 327 kts 270°
2026-05-01 12:52 22.22785 114.58880 14029 ft 313 kts 270°
2026-05-01 12:52 22.22729 114.54323 13968 ft 303 kts 271°
2026-05-01 12:52 22.22704 114.52031 13970 ft 304 kts 271°
2026-05-01 12:53 22.22647 114.47458 13963 ft 304 kts 270°
2026-05-01 12:53 22.22617 114.45172 13886 ft 305 kts 270°
2026-05-01 12:53 22.22586 114.42888 13485 ft 305 kts 270°
2026-05-01 12:54 22.22555 114.40593 13120 ft 303 kts 270°
2026-05-01 12:54 22.22490 114.36051 12418 ft 297 kts 270°
2026-05-01 12:54 22.22458 114.33813 12075 ft 294 kts 270°
2026-05-01 12:55 22.22393 114.29442 11401 ft 290 kts 270°
2026-05-01 12:55 22.22359 114.27259 11061 ft 288 kts 270°
2026-05-01 12:55 22.22327 114.25124 10728 ft 286 kts 270°
2026-05-01 12:56 22.22294 114.22966 10392 ft 284 kts 270°
2026-05-01 12:56 22.22261 114.20872 10078 ft 281 kts 270°
2026-05-01 12:56 22.22228 114.18746 9752 ft 279 kts 271°
2026-05-01 12:56 22.22195 114.16679 9432 ft 277 kts 271°
2026-05-01 12:57 22.22162 114.14603 9109 ft 276 kts 271°
2026-05-01 12:57 22.22095 114.10480 8466 ft 272 kts 271°
2026-05-01 12:57 22.22062 114.08433 8134 ft 271 kts 271°
2026-05-01 12:58 22.22029 114.06410 7990 ft 260 kts 271°
2026-05-01 12:58 22.21997 114.04493 7987 ft 255 kts 271°
2026-05-01 12:58 22.21964 114.02558 7949 ft 256 kts 271°
2026-05-01 12:59 22.21843 113.98708 7266 ft 256 kts 270°
2026-05-01 12:59 22.21776 113.96780 6942 ft 255 kts 270°
2026-05-01 12:59 22.21681 113.93009 6300 ft 251 kts 278°
2026-05-01 13:00 22.23700 113.90447 5735 ft 225 kts 354°
2026-05-01 13:00 22.25222 113.90453 5634 ft 220 kts
2026-05-01 13:01 22.28271 113.90669 5267 ft 219 kts
2026-05-01 13:01 22.29682 113.91187 5049 ft 216 kts 39°
2026-05-01 13:01 22.31484 113.93718 4557 ft 218 kts 74°
2026-05-01 13:02 22.31742 113.95324 4437 ft 216 kts 82°
2026-05-01 13:07 22.31560 114.20338 24 ft 108 kts 134°
2026-05-01 13:07 22.31158 114.20787 24 ft 58 kts 134°
2026-05-01 13:07 22.30981 114.20987 24 ft 12 kts 132°
2026-05-01 13:08 22.30967 114.21052 24 ft 7 kts 60°
2026-05-01 13:08 22.31009 114.21089 24 ft 8 kts
2026-05-01 13:08 22.31061 114.21054 24 ft 10 kts 314°
2026-05-01 13:08 22.31132 114.20973 24 ft 19 kts 314°
2026-05-01 13:09 22.31242 114.20850 24 ft 26 kts 314°
2026-05-01 13:09 22.31378 114.20695 24 ft 28 kts 314°
2026-05-01 13:09 22.31515 114.20542 24 ft 28 kts 314°
2026-05-01 13:09 22.31649 114.20393 24 ft 27 kts 314°
2026-05-01 13:10 22.31782 114.20244 24 ft 27 kts 314°
2026-05-01 13:10 22.31915 114.20094 24 ft 27 kts 314°
2026-05-01 13:10 22.32051 114.19944 24 ft 28 kts 314°
2026-05-01 13:10 22.32186 114.19794 24 ft 28 kts 314°
2026-05-01 13:11 22.32327 114.19641 24 ft 28 kts 317°
2026-05-01 13:11 22.32464 114.19503 24 ft 26 kts 316°
2026-05-01 13:11 22.32552 114.19415 24 ft 6 kts 336°
2026-05-01 13:11 22.32594 114.19431 24 ft 8 kts 39°
2026-05-01 13:12 22.32649 114.19484 24 ft 13 kts 42°
2026-05-01 13:12 22.32726 114.19563 24 ft 15 kts 43°
2026-05-01 13:12 22.32781 114.19593 24 ft 7 kts 332°
2026-05-01 13:12 22.32822 114.19552 24 ft 8 kts 313°
2026-05-01 13:13 22.32835 114.19537 24 ft 0 kts 313°